Regional Weather Roundup
Issued by NWS

Home | Current Version | Previous Version | Text Only | Print | Product List | Glossary Off
Versions: 1 2 3 4 5 6 7 8 9 10 11 12 13 14 15 16 17 18 19 20 21 22 23 24 25 26 27 28 29 30 31 32 33 34 35 36 37 38 39 40 41 42 43 44 45 46 47 48 49 50

000
ASUS43 KMKX 051511
RWRWI

WISCONSIN REGIONAL WEATHER ROUNDUP
NATIONAL WEATHER SERVICE MILWAUKEE/SULLIVAN WI
1000 AM CDT SUN JUL 05 2015

NOTE: "FAIR" INDICATES FEW OR NO CLOUDS BELOW 12,000 FEET WITH NO
SIGNIFICANT WEATHER AND/OR OBSTRUCTIONS TO VISIBILITY.

WIZ001-002-006>008-014>016-023>028-051600-
NORTHWEST WISCONSIN

CITY           SKY/WX    TMP DP  RH WIND       PRES   REMARKS
SUPERIOR ARPT  MOSUNNY   72  64  76 S6        29.89F
ASHLAND        PTSUNNY   74  64  71 SW14      29.92F
HAYWARD        PTSUNNY   75  62  64 SW13G18   29.95F
SIREN          PTSUNNY   76  61  58 S10       29.93F
CUMBERLAND     MOSUNNY   72  61  68 S15       29.96F
RICE LAKE      MOSUNNY   74  61  63 S12       29.98F
CHETEK         MOSUNNY   75  64  67 S8        29.97F
LADYSMITH      MOSUNNY   73  63  70 S9        30.01S
EAU CLAIRE     MOSUNNY   76  62  62 S12       29.98F
MENOMONIE      MOSUNNY   75  63  67 S10       29.98F
NEW RICHMOND   PTSUNNY   74  61  63 S12       29.93F
OSCEOLA        PTSUNNY   75  63  66 S12       29.94F
$$

WIZ003>005-009-010-017-018-051600-
NORTH CENTRAL WISCONSIN

CITY           SKY/WX    TMP DP  RH WIND       PRES   REMARKS
MANITOWISH WTR PTSUNNY   72  63  73 SW13      30.00F
ARBOR VITAE    MOSUNNY   72  63  73 S12       30.01F
WOODRUFF       MOSUNNY   72  63  73 S12       30.01F
RHINELANDER    SUNNY     74  61  63 SW10      30.04F
EAGLE RIVER    MOSUNNY   73  61  64 S9        30.02F
LAND O LAKES   SUNNY     74  61  63 S9G17     30.02S
PHILLIPS       PTSUNNY   73  63  71 S8        30.00F
TOMAHAWK       SUNNY     72  62  70 CALM      30.04S
MEDFORD        SUNNY     72  62  71 S13       30.03S
MERRILL        PTSUNNY   74  63  69 SW8       30.04F
$$

WIZ029-030-035-036-043>047-051600-
CENTRAL WISCONSIN

CITY           SKY/WX    TMP DP  RH WIND       PRES   REMARKS
WAUSAU         SUNNY     75  62  64 SW8       30.02S
MOSINEE        SUNNY     73  64  73 SW10      30.05R
MARSHFIELD     SUNNY     74  61  63 SW10      30.03F
STEVENS POINT  SUNNY     73  61  66 SW7       30.05S
WAUPACA        SUNNY     78  64  61 SW8       30.05R HX  80
WAUTOMA        SUNNY     78  64  61 SW7       30.06R HX  80
WISC RAPIDS    SUNNY     74  61  63 S7        30.05S
CAMP DOUGLAS   MOSUNNY   75  72  88 S8        30.03F
$$

WIZ011>013-019>022-031-037>040-048>050-051600-
NORTHEAST WISCONSIN

CITY           SKY/WX    TMP DP  RH WIND       PRES   REMARKS
ANTIGO         SUNNY     72  63  72 SW10      30.06R
SHAWANO        SUNNY     77  63  62 SW5       30.04S
OCONTO         SUNNY     76  64  65 W5        30.03S
STURGEON BAY   SUNNY     73  63  68 S7        30.07S
GREEN BAY      SUNNY     77  64  64 SW8       30.04F
MANITOWOC      SUNNY     74  66  76 MISG      30.06F
APPLETON       SUNNY     73  61  64 SW7       30.06S
CLINTONVILLE   SUNNY     75  61  60 SW6       30.04R
OSHKOSH        SUNNY     75  64  68 S8        30.04F
$$

WIZ032>034-041-042-053>061-051600-
SOUTHWEST WISCONSIN

CITY           SKY/WX    TMP DP  RH WIND       PRES   REMARKS
LA CROSSE      SUNNY     75  63  66 S8        30.01S
SPARTA         SUNNY     76  60  57 S9        30.03S
VIROQUA        SUNNY     74  63  68 S8        30.05S
BOSCOBEL       SUNNY     76  65  68 CALM      30.03F
PRAIRIE DU CHI SUNNY     74  64  68 S6        30.03F
PLATTEVILLE    SUNNY     74  67  76 S9        30.07S
$$

WIZ056-057-062-063-064-067-068-051600-
SOUTH CENTRAL WISCONSIN

CITY           SKY/WX    TMP DP  RH WIND       PRES   REMARKS
REEDSBURG      SUNNY     73  64  73 S10       30.05S
BARABOO/DELLS  SUNNY     74  61  63 SW9       30.06S
LONE ROCK      SUNNY     76  64  66 S7        30.05F
MINERAL POINT  SUNNY     75  64  69 S7        30.07F
MADISON        MOSUNNY   76  61  59 SW8       30.05F
MIDDLETON      SUNNY     76  62  60 SW7       30.07S
WATERTOWN      SUNNY     74  67  79 SW3       30.07S
MONROE         SUNNY     73  63  68 S9        30.07F
JANESVILLE     SUNNY     75  63  64 S6        30.07F
$$

WIZ051-052-058>065-066-070>072-051600-
SOUTHEAST WISCONSIN

CITY           SKY/WX    TMP DP  RH WIND       PRES   REMARKS
MILWAUKEE      MOSUNNY   77  59  53 VRB6      30.07F
WAUKESHA       SUNNY     73  61  64 SW7       30.09F
MILWAUKEE/TIMM SUNNY     75  57  53 W8        30.08F
RACINE         SUNNY     77  60  55 SW6       30.09F
BURLINGTON     SUNNY     73  62  68 S3        30.08F
KENOSHA        SUNNY     77  62  59 W7        30.09S
FOND DU LAC    SUNNY     75  63  66 SW7       30.06F
SHEBOYGAN      SUNNY     76  63  64 SW7       30.06F
WEST BEND      SUNNY     75  59  57 S5        30.07F
JUNEAU         SUNNY     73  63  72 S8        30.08S
$$

LSZ147-162-051600-
LAKE SUPERIOR

STATION/POSITION TIME  TEMP    WIND        PRES    WAVE
                       AIR SEA DIR/SP/G            HT/PER
                 (UTC) (F)     (DEG/KT/KT) (MB)    (FT/S)
W MID LAKE BUOY  1450   49 39  210/  8/ 10 1013.1S   1
DEVILS ISLAND    1500   62     270/  3/  5 1012.8F
SAXON HARBOR     1400   72     200/  7/ 11 1013.5S
$$

LMZ867-665-643>646-051600-
LAKE MICHIGAN

STATION/POSITION TIME  TEMP    WIND        PRES    WAVE
                       AIR SEA DIR/SP/G            HT/PER
                 (UTC) (F)     (DEG/KT/KT) (MB)    (FT/S)
CHAMBERS ISLAND  1400   69     170/  6/  9 1016.9F
N MID LAKE BUOY  1450   52 44  190/ 10/ 10 1017.4F   1/ 3
NORTHPORT PIER   1400   63     150/  6/  9 1017.3S
SISTER BAY       1429   74     180/  6/  8   N/A
ALGOMA LAKESHORE 1426          200/  5/  7   N/A
KEWAUNEE LAKESHO 1400   63     170/  7/  9 1017.2S
SHEBOYGAN LAKESH 1500   64     160/ 12/ 12 1018.0F
PORT WASHINGTON  1400   67     160/  4/  6 1019.0S
ATWATER BUOY     1500   64 61  140/  6/  8 1019.6F
MILWAUKEE LAKESH 1400   66      90/  3/  4   N/A
KENOSHA   LAKESH 1500   67     170/  6/  8 1018.3F
$$

TC  - TEMPERATURE IN CELSIUS
VSB - VISIBILITY IN STATUTE MILES
WCI - WIND CHILL INDEX
HX  - HEAT INDEX



USA.gov is the U.S. government's official web portal to all federal, state and local government web resources and services.